Regional Weather Roundup
Issued by NWS Binghamton, NY

Home | Current Version | Previous Version | Text Only | Print | Product List | Glossary On
Versions: 1 2 3 4 5 6 7 8 9 10 11 12 13 14 15 16 17 18 19 20 21 22 23 24 25 26 27 28
000
ASUS41 KBGM 161410
RWRBGM

REGIONAL WEATHER ROUNDUP
NATIONAL WEATHER SERVICE BINGHAMTON NY
900 AM EST SAT DEC 16 2017

Note: "fair" indicates few or no clouds below 12,000 feet with no
significant weather and/or obstructions to visibility.

* = Station(s) that does not report precipitation, such as rain,
snow, etc, also no thunder or fog.

NYZ009-015>018-022>025-036-037-044>046-055>057-062-161500
...Central New York...

CITY           SKY/WX    TMP DP  RH WIND       PRES   REMARKS
Binghamton     LGT SNOW  20  16  84 SW3       29.87S FOG
Cortland       CLOUDY    23  18  80 W8        29.90R WCI  14
Dansville      LGT SNOW  24  22  91 CALM      29.93R FOG
Elmira         LGT SNOW  24  21  88 CALM      29.92S FOG
Seneca Falls   CLOUDY    25  16  68 SW9       29.94S WCI  15
Ithaca         LGT SNOW  23  20  88 SW5       29.92R VSB 1   WCI  17
Hornell        LGT SNOW  25  21  86 CALM      29.93R
Monticello     FLURRIES  20  14  77 W7        29.93R WCI  11
Penn Yan       SNOW      24  19  81 SE6       29.92R VSB 1/2 WCI  17
Rome           LGT SNOW  23  13  65 W10       29.92R WCI  12
Sidney         RAIN      21  19  93 SW7       29.93R WCI  13
Syracuse       CLOUDY    25  15  66 SW18G28   29.89S WCI  11
$$

PAZ038>040-043-044-047-048-072-161500
...Northeast Pennsylvania...

CITY           SKY/WX    TMP DP  RH WIND       PRES   REMARKS
Hazleton       CLOUDY    28  19  69 SW8       29.98R WCI  20
Scranton       CLOUDY    24  17  74 SW9       29.96R WCI  14
$$
&&
KEY
WCI = Wind Chill Index
VSB = Visibility
HX  = Heat Index
$$




USA.gov is the U.S. government's official web portal to all federal, state and local government web resources and services.